OPS 4682 DEB, 38460

Orbit data source: Space-Track

OPS 4682 DEB, 38460 is space debris in LEO originally from a launch on Sat, 03 Apr 1965 UTC launched from the Air Force Western Test Range (AFWTR). Debris objects in space refer to the collection of defunct objects orbiting the Earth. Examples of debris include non-operational satellites, rocket bodies, and fragments generated from explosions, collisions, or faulty payload assembly.

Loading next visibility...
Identifier
38460, 1965-027FR
Orbit
LEO
Country
Flag of USUS
Related business
Manufacturer
Unknown
Mission
Spacecraft
Bus & Motor
Unknown
Mass
Unknown
Launch date (UTC)
1965-04-03 (61 years ago)
Launch vehicle
Unknown
Launch site
Air Force Western Test Range (AFWTR)
Object type
Payload
Rocket body
Debris
Shape & HBR
Unknown shape, 0.1 m
Radar Cross Section
Medium (>0.1 m² and <1 m²)

Expand to show TLE details & history
Last TLE update: 3 days ago

TLE from 3 days ago
0 OPS 4682 DEB
1 38460U 65027FR  26147.83044387  .00000418  00000-0  14584-2 0  9995
2 38460  90.2339   2.0693 0027705 269.0187 108.2550 12.95191103752976
Epoch: 2026-05-27T19:55Z
TLE epoch observation values (Epoch: 2026-05-27T19:55:50.350Z)
Latitude
17.56291°
Longitude
177.65195°
Altitude
1,289.994 km
Speed
7.209 km/s
True Right ascension
00h 07m 58s
True Declination
17° 28' 16"
Sunlit
Object was in daylight at epoch
Visualization orbit readout
Latitude
Unknown
Longitude
Unknown
Altitude
Unknown
Speed
Unknown
Apparent Right ascension
Unknown
Apparent Declination
Unknown
Sunlit
N/A
Visualization observer readout
Local Sidereal Time
09:14:26
Azimuth
Unknown
Elevation
Unknown
Doppler factor
Unknown
Orbital elements
Apogee altitude
1,299.332 km
Perigee altitude
1,256.909 km
Semi-major axis
7,656.258 km
Eccentricity
0.00277
Inclination
90.2339°
RAAN
2.0693°
Arg. of periapsis
269.0187°
True anomaly
108.55617°
Mean anomaly
108.255°
Eccentric anomaly
108.40562°
Mean motion
3.2398 °/min
Orbital period
111.12 mins
BSTAR
0.0014584
Loading maneuver chart data...
Computing Atmospheric mass density...
Loading historical data...
Loading historical data...
Loading historical data...
Loading historical data...
Loading historical data...
Loading historical data...
Loading historical data...

Documentation

Showing up to 5 results
|